User: anonymous   Login
Location: Ellerstadt
(49.4644°N, 8.2615°E)
Time: 13:17:30
(UTC+00:00)
Language:

YAOGAN 1 - Orbit

View from above orbital plane
View from above orbital plane
View from above satellite
View from above satellite

Ground track
Ground track

The orbit data is extracted from the following two-line orbital elements,

1 29092U 06015A   21127.15921526  .00000061  00000-0  13921-4 0  9995
2 29092  97.9116 154.9412 0001471  91.7412 268.3970 14.83154148812814
Epoch (UTC): 07 May 2021 03:49:16
Eccentricity: 0.0001471
inclination: 97.9116°
perigee height: 618 km
apogee height: 620 km
right ascension of ascending node: 154.9412°
argument of perigee: 91.7412°
revolutions per day: 14.83154148
mean anomaly at epoch: 268.3970°
orbit number at epoch: 81281

The dashed part of the orbit path shows where the satellite is in the earth's shadow,  

DLR